Wind_Speed
88 96 101 102 101 99 103 102 98 96 94 88 84 85 97 105 88 84 72 75 64 61 63 69 62 59 55 55 53 52 47 46 40 40 40 40 45 38 37 36 33 30 29
70 82 90 97 104 104 102 101 98 96 93 91 86 85 102 106 91 84 73 81 76 68 56 58 60 62 55 50 53 54 49 49 41 40 43 39 44 44 40 39 36 33 31
57 70 76 84 95 104 105 103 101 98 96 93 88 89 103 113 106 79 63 71 75 80 61 55 57 64 57 55 54 55 52 49 41 40 44 41 46 49 43 41 39 37 34
49 60 67 73 86 96 102 103 102 102 99 96 90 93 107 117 113 87 85 66 75 81 73 60 54 56 63 58 55 56 52 50 44 41 42 45 45 47 50 43 42 40 38
41 51 58 67 77 87 96 101 100 102 100 100 93 95 114 119 118 99 91 72 73 79 80 67 57 55 57 59 57 55 52 53 48 44 42 45 45 46 48 46 44 42 41
32 39 50 60 70 79 89 94 99 101 100 102 95 97 118 122 115 97 90 82 71 76 79 73 60 58 58 58 58 57 54 52 51 47 42 42 47 48 48 49 43 44 43
27 32 42 53 65 75 86 90 98 101 101 102 97 98 119 123 118 97 92 81 80 72 79 76 64 57 55 60 60 60 59 54 51 51 47 45 46 50 49 50 47 41 44
21 26 36 49 59 68 80 87 99 103 102 103 100 99 120 125 122 112 94 93 85 79 79 76 70 65 61 62 63 63 63 58 56 54 55 47 45 46 50 51 53 45 46
18 23 33 43 53 64 75 85 99 105 107 104 102 103 120 127 117 105 100 97 95 82 78 67 66 70 72 63 62 64 66 65 61 56 57 57 49 47 50 52 55 53 46
14 19 28 41 50 61 72 85 99 106 109 106 105 108 122 122 117 108 99 103 106 93 79 72 75 75 68 66 67 63 66 64 63 61 58 60 55 51 50 52 55 59 53
10 13 26 38 47 60 72 85 99 108 111 108 109 114 128 127 121 115 106 101 100 89 87 79 76 74 75 74 68 65 66 64 63 61 61 61 55 52 54 52 55 58 64
7 9 22 32 42 57 69 84 100 110 113 110 112 117 131 127 121 108 104 111 99 94 88 84 83 81 69 76 74 69 68 67 61 62 62 63 61 57 57 54 54 59 61
7 8 19 29 41 55 67 81 100 111 115 113 113 120 136 131 125 119 111 116 107 92 94 94 87 84 76 78 76 73 71 69 63 62 61 62 61 59 58 58 57 57 60
9 6 18 27 42 55 68 81 100 112 115 113 114 128 136 132 126 122 119 105 107 103 102 98 96 87 86 80 77 76 70 68 69 63 62 61 61 60 60 61 59 58 57
11 4 14 26 40 53 66 79 99 112 116 114 117 135 144 137 128 126 123 117 108 104 104 99 99 95 93 86 83 77 72 67 66 63 61 61 57 59 62 64 62 58 58
17 5 9 23 38 52 64 81 97 111 116 117 119 138 145 142 137 131 126 115 106 105 109 109 107 101 98 86 81 75 74 72 67 70 67 65 63 65 61 65 66 62 60
27 9 5 17 34 48 63 79 93 109 114 119 122 141 146 144 143 135 127 122 112 98 108 108 97 98 90 86 73 74 78 80 76 72 69 68 66 68 66 65 65 64 62
33 19 5 11 29 44 59 76 94 106 113 121 124 141 148 146 143 141 134 124 126 118 106 112 103 101 97 87 83 75 79 83 78 75 74 72 73 72 70 66 66 66 63
41 25 11 7 20 40 54 70 95 103 114 122 126 141 147 144 145 149 134 129 123 121 116 117 114 103 103 96 93 84 87 90 87 81 80 77 76 76 77 73 69 67 65
39 34 19 6 14 31 50 66 91 101 113 122 127 140 149 147 145 145 139 132 127 124 117 116 113 107 103 103 93 90 88 88 89 87 83 83 82 80 79 78 74 71 69
34 32 25 9 8 24 42 61 80 100 110 121 128 138 150 150 148 142 143 134 135 124 127 122 118 112 110 107 106 101 99 95 92 90 95 90 89 85 86 80 78 77 78
31 29 26 18 2 15 33 51 71 96 108 119 128 133 147 152 150 146 141 142 132 129 130 126 122 115 113 112 110 107 104 101 100 99 94 93 93 92 92 90 85 85 85
31 27 24 20 12 7 21 41 61 81 106 118 125 132 142 154 155 153 147 148 143 139 130 125 120 118 117 117 117 114 112 110 109 108 107 106 101 99 97 95 90 87 87
32 28 23 19 16 10 14 29 48 70 89 115 126 133 138 152 155 159 155 152 154 147 139 134 131 126 124 123 119 122 118 117 117 117 116 111 105 104 104 104 101 94 91
37 33 28 23 20 15 14 21 37 55 78 98 123 135 141 147 154 159 159 159 157 150 150 140 138 138 137 132 132 129 128 127 125 122 118 115 112 110 110 108 106 102 99
41 39 33 28 25 23 20 20 29 44 60 83 107 130 140 157 154 159 164 163 165 159 154 150 143 145 138 139 136 135 133 128 129 130 126 124 118 116 116 113 112 109 104
Wind_Direction
251 248 246 244 241 235 232 232 229 226 224 221 214 208 200 198 202 210 211 215 220 223 224 229 232 230 237 234 231 230 235 238 244 236 237 234 231 233 231 233 236 238 239
250 246 241 239 235 233 229 227 225 222 220 219 211 205 196 198 198 205 208 216 221 217 220 227 227 229 232 233 232 230 232 235 240 234 235 235 234 230 234 229 233 235 236
248 243 239 233 229 226 226 223 221 218 217 216 210 202 195 192 195 196 185 207 219 217 221 224 218 224 229 230 232 228 230 231 235 235 232 233 231 232 233 230 232 235 235
251 241 237 230 225 221 219 220 216 215 213 213 208 199 195 190 193 195 194 203 221 219 218 219 218 221 228 229 227 226 231 231 231 237 234 232 234 234 236 237 232 235 237
253 239 232 226 221 217 215 215 211 211 209 209 205 196 194 190 191 198 202 195 217 212 214 221 220 219 224 224 223 223 229 227 231 237 237 231 234 234 234 236 235 232 236
256 240 228 220 217 213 211 211 207 207 205 206 202 195 192 191 192 195 195 200 205 215 215 219 218 223 224 222 222 222 225 226 229 234 239 236 233 234 234 234 237 238 237
260 240 224 215 213 210 207 205 202 203 201 203 200 196 192 191 189 194 192 194 204 209 212 218 217 220 222 221 220 222 224 226 230 235 237 241 240 235 236 235 233 231 236
263 237 219 212 209 207 205 201 198 199 198 200 198 195 193 191 192 193 201 193 203 202 211 216 215 218 220 224 221 223 225 226 232 236 237 240 242 243 237 236 233 232 235
268 232 217 209 206 202 200 197 195 196 195 197 195 194 193 190 189 192 194 191 199 201 205 212 216 221 219 219 222 224 227 226 229 234 241 237 241 245 244 238 235 233 235
286 234 215 206 203 200 197 194 192 193 193 194 192 192 192 190 189 190 188 190 203 204 203 205 211 217 219 217 222 226 226 227 230 233 238 240 239 241 243 241 238 235 236
311 239 210 204 202 197 194 191 192 191 192 191 191 190 189 189 191 193 194 199 201 202 204 206 210 218 224 221 225 224 225 226 229 232 236 237 236 242 243 244 242 239 237
325 227 204 202 202 194 194 191 191 189 191 189 189 190 189 189 188 189 198 199 201 201 204 203 211 214 217 227 224 224 223 227 228 230 233 235 238 244 239 243 245 241 240
335 226 207 201 199 194 193 192 190 189 191 188 190 191 187 188 187 193 196 200 201 201 204 204 208 212 212 223 224 223 225 227 225 227 231 235 236 239 242 241 243 245 242
356 249 216 203 197 194 192 191 190 189 192 189 189 190 187 185 188 192 196 198 198 199 200 205 208 209 213 219 221 223 222 224 226 229 231 233 235 238 241 241 242 246 246
3 287 223 205 196 193 193 193 190 191 192 191 191 191 187 188 189 193 195 198 198 200 200 204 207 208 211 217 224 220 219 222 222 225 229 232 234 237 238 239 240 243 247
5 328 231 209 199 195 196 194 191 192 193 192 192 192 190 192 191 194 197 201 203 205 206 208 212 212 214 215 221 219 221 220 222 226 230 233 233 237 236 238 241 244 243
8 348 247 215 201 200 197 196 190 194 194 194 193 194 192 193 194 196 198 202 204 204 206 206 206 208 212 213 214 221 225 225 226 226 230 233 233 237 236 236 239 243 246
16 9 314 219 209 202 201 199 194 194 196 195 195 195 195 195 197 197 201 205 208 207 206 208 211 214 213 212 215 219 222 224 227 229 232 233 235 236 233 233 236 240 242
12 18 2 242 213 208 203 202 197 196 197 197 197 197 197 196 198 199 203 204 205 208 208 210 216 216 217 218 218 221 224 224 227 227 229 230 231 233 235 233 236 238 239
13 12 19 327 218 211 208 203 201 199 199 200 200 198 198 198 198 202 203 206 205 207 210 211 213 215 216 219 216 221 222 224 225 224 226 229 231 236 235 235 234 236 240
5 11 12 18 244 214 212 207 206 202 202 203 203 202 201 202 202 203 205 203 207 211 210 212 214 215 217 219 216 217 220 223 224 226 230 230 232 235 235 237 238 238 239
357 359 5 5 11 226 213 213 208 206 205 207 207 206 204 205 205 204 206 205 207 210 212 212 215 216 218 219 219 219 222 225 226 227 228 228 232 233 234 236 241 242 241
340 348 353 354 345 223 222 214 214 211 209 208 211 211 208 207 208 207 207 207 208 212 214 216 216 218 219 220 221 222 225 227 228 227 229 232 231 232 234 237 241 242 241
326 330 336 340 335 310 229 220 216 215 214 210 211 213 213 210 211 210 209 209 210 211 213 215 218 217 219 222 223 223 228 228 230 231 233 234 232 235 238 240 241 242 242
314 316 317 319 316 301 273 233 220 218 217 216 214 214 215 215 214 214 212 211 212 213 214 216 220 221 223 224 225 226 230 233 230 232 235 237 238 236 237 239 243 244 243
304 307 307 306 304 302 284 262 233 222 221 219 218 217 216 216 218 217 216 214 213 214 215 214 219 222 223 226 227 229 229 231 233 235 236 238 238 242 242 242 243 244 245
Height
10312 10319 10329 10343 10360 10385 10402 10424 10453 10479 10502 10529 10555 10579 10597 10618 10636 10647 10665 10674 10685 10698 10710 10719 10729 10737 10743 10747 10754 10761 10766 10771 10774 10778 10783 10789 10794 10799 10804 10807 10812 10814 10816
10278 10284 10292 10307 10324 10348 10373 10398 10425 10453 10479 10505 10533 10556 10578 10599 10620 10639 10652 10662 10674 10686 10696 10707 10717 10723 10731 10739 10744 10753 10758 10762 10765 10769 10775 10781 10786 10792 10796 10799 10804 10808 10811
10251 10254 10262 10275 10291 10315 10341 10369 10399 10429 10456 10483 10512 10536 10558 10584 10607 10623 10635 10641 10651 10670 10684 10694 10702 10710 10720 10728 10733 10742 10748 10753 10758 10760 10766 10772 10775 10782 10787 10792 10797 10801 10804
10228 10230 10238 10250 10264 10286 10313 10341 10375 10405 10435 10463 10491 10516 10539 10562 10588 10604 10618 10627 10638 10657 10671 10680 10690 10698 10707 10717 10723 10731 10738 10746 10750 10753 10758 10763 10768 10775 10780 10785 10789 10794 10798
10210 10212 10219 10230 10244 10266 10290 10316 10354 10385 10415 10443 10471 10496 10517 10543 10571 10587 10606 10615 10626 10644 10658 10667 10677 10686 10696 10704 10712 10721 10730 10735 10741 10743 10750 10754 10761 10766 10770 10776 10779 10784 10790
10197 10198 10204 10215 10229 10249 10272 10299 10336 10368 10398 10426 10454 10478 10500 10524 10550 10571 10585 10600 10615 10624 10642 10655 10665 10675 10683 10692 10700 10708 10717 10725 10730 10737 10743 10747 10750 10756 10761 10767 10773 10778 10782
10187 10188 10193 10204 10217 10235 10255 10284 10321 10353 10384 10410 10439 10464 10485 10508 10534 10553 10565 10586 10605 10616 10631 10642 10653 10664 10672 10680 10688 10697 10705 10714 10721 10727 10732 10737 10741 10747 10753 10759 10764 10767 10772
10181 10182 10188 10196 10209 10226 10246 10273 10305 10338 10370 10396 10424 10451 10471 10494 10517 10540 10559 10575 10588 10600 10613 10626 10638 10651 10659 10669 10677 10683 10691 10702 10711 10718 10723 10728 10733 10739 10744 10749 10755 10759 10762
10177 10179 10184 10193 10206 10220 10239 10265 10294 10327 10357 10381 10410 10437 10458 10483 10507 10531 10547 10559 10572 10586 10603 10616 10620 10634 10646 10656 10664 10671 10679 10689 10698 10705 10711 10718 10724 10729 10733 10739 10744 10749 10752
10177 10178 10183 10191 10203 10217 10236 10259 10285 10315 10344 10370 10397 10422 10445 10473 10496 10516 10533 10546 10559 10575 10588 10601 10612 10622 10632 10643 10652 10659 10667 10676 10686 10694 10700 10707 10713 10717 10722 10727 10733 10738 10742
10179 10178 10182 10191 10202 10216 10233 10254 10279 10307 10336 10360 10387 10408 10434 10460 10483 10503 10521 10534 10547 10559 10573 10588 10596 10607 10619 10629 10637 10647 10655 10663 10672 10682 10689 10695 10700 10706 10711 10715 10721 10725 10730
10183 10182 10185 10194 10204 10216 10233 10251 10274 10300 10326 10350 10375 10397 10421 10445 10469 10487 10504 10518 10530 10540 10555 10573 10584 10594 10612 10614 10625 10634 10643 10652 10660 10669 10676 10681 10688 10694 10698 10704 10708 10713 10717
10189 10188 10190 10195 10205 10218 10232 10251 10273 10294 10317 10340 10365 10387 10410 10432 10452 10473 10489 10502 10517 10530 10543 10556 10568 10581 10589 10599 10611 10621 10629 10639 10646 10654 10661 10667 10675 10681 10687 10692 10696 10700 10705
10193 10192 10193 10197 10206 10217 10231 10249 10268 10290 10312 10333 10355 10376 10398 10420 10439 10458 10475 10488 10501 10511 10521 10533 10550 10563 10577 10587 10596 10607 10615 10624 10633 10641 10648 10655 10664 10668 10674 10677 10683 10689 10695
10198 10196 10197 10201 10208 10219 10232 10247 10266 10286 10305 10327 10347 10366 10386 10406 10426 10443 10459 10475 10484 10497 10510 10523 10536 10548 10557 10570 10581 10591 10600 10610 10619 10628 10635 10643 10649 10653 10660 10664 10670 10679 10683
10203 10201 10201 10203 10211 10221 10233 10247 10262 10280 10299 10319 10339 10358 10375 10394 10412 10428 10442 10458 10472 10486 10498 10510 10522 10533 10544 10557 10568 10580 10588 10596 10605 10614 10620 10627 10633 10640 10646 10653 10656 10665 10671
10210 10206 10205 10207 10212 10222 10233 10245 10259 10276 10295 10312 10329 10348 10364 10381 10399 10414 10428 10443 10457 10471 10484 10495 10507 10517 10533 10543 10554 10564 10572 10581 10590 10597 10604 10612 10619 10625 10631 10638 10644 10650 10658
10216 10212 10209 10210 10214 10222 10233 10242 10256 10272 10288 10305 10321 10337 10353 10368 10385 10401 10415 10427 10443 10457 10470 10481 10491 10503 10518 10528 10537 10546 10554 10564 10573 10581 10588 10595 10601 10610 10616 10622 10629 10636 10641
10222 10216 10214 10214 10216 10222 10230 10242 10254 10265 10281 10297 10311 10327 10342 10354 10370 10385 10398 10412 10425 10439 10452 10465 10476 10488 10501 10512 10521 10528 10534 10544 10554 10563 10569 10577 10584 10592 10599 10608 10615 10622 10628
10227 10220 10217 10216 10217 10220 10228 10239 10251 10263 10275 10289 10302 10315 10330 10340 10354 10369 10383 10397 10410 10423 10435 10446 10459 10473 10484 10494 10504 10509 10516 10524 10534 10542 10549 10558 10568 10573 10582 10591 10598 10606 10612
10229 10224 10219 10218 10217 10220 10224 10232 10245 10256 10268 10280 10293 10305 10317 10328 10340 10352 10365 10380 10393 10405 10418 10430 10442 10457 10467 10474 10481 10485 10491 10503 10511 10518 10531 10540 10550 10557 10567 10575 10583 10590 10590
10228 10223 10219 10215 10215 10216 10220 10225 10234 10246 10258 10270 10282 10293 10304 10315 10323 10336 10347 10363 10375 10386 10399 10411 10423 10436 10445 10455 10463 10469 10473 10482 10491 10497 10507 10521 10530 10538 10546 10555 10562 10568 10573
10225 10221 10217 10213 10211 10211 10213 10218 10224 10232 10244 10255 10266 10277 10288 10297 10306 10320 10331 10343 10356 10368 10380 10392 10404 10416 10423 10434 10443 10449 10455 10461 10469 10477 10483 10494 10508 10518 10525 10534 10542 10548 10555
10220 10216 10211 10207 10204 10203 10204 10206 10212 10218 10226 10237 10248 10258 10270 10280 10288 10298 10310 10321 10334 10347 10362 10373 10384 10395 10402 10411 10421 10428 10432 10441 10447 10456 10463 10474 10488 10497 10506 10513 10521 10530 10538
10211 10208 10204 10200 10197 10194 10193 10194 10196 10202 10207 10216 10225 10237 10246 10257 10270 10278 10287 10299 10313 10324 10338 10351 10361 10373 10382 10386 10398 10406 10413 10419 10429 10436 10446 10452 10466 10477 10482 10492 10500 10511 10520
10199 10196 10193 10190 10187 10185 10183 10182 10183 10185 10190 10194 10201 10210 10220 10234 10244 10255 10266 10275 10287 10300 10311 10325 10334 10347 10356 10366 10373 10380 10392 10398 10406 10414 10423 10430 10440 10450 10463 10471 10479 10487 10498